Regional Weather Roundup
Issued by NWS

Home | Current Version | Previous Version | Graphics & Text | Print | Product List | Glossary Off
Versions: 1 2 3 4 5 6 7 8 9 10 11 12 13 14 15 16 17 18 19 20 21 22 23 24 25 26 27 28 29 30 31 32 33 34 35 36 37 38 39 40 41 42 43 44 45 46 47 48 49 50

000
ASUS43 KMKX 011500
RWRWI

WISCONSIN REGIONAL WEATHER ROUNDUP
NATIONAL WEATHER SERVICE MILWAUKEE/SULLIVAN WI
1000 AM CDT WED OCT 01 2014

NOTE: "FAIR" INDICATES FEW OR NO CLOUDS BELOW 12,000 FEET WITH NO
SIGNIFICANT WEATHER AND/OR OBSTRUCTIONS TO VISIBILITY.

WIZ001-002-006>008-014>016-023>028-011600-
NORTHWEST WISCONSIN

CITY           SKY/WX    TMP DP  RH WIND       PRES   REMARKS
SUPERIOR ARPT  LGT RAIN  48  47  99 E5        29.87F
ASHLAND        CLOUDY    50  44  80 S3        29.91F
HAYWARD        LGT RAIN  48  45  89 SE13      29.90S FOG
SIREN          LGT RAIN  48  47  95 S9        29.87S
CUMBERLAND     RAIN      45  45 100 SE9       29.89F
RICE LAKE      RAIN      47  45  93 SE13      29.92S
CHETEK         RAIN      46  46  97 E9        29.91F
LADYSMITH      CLOUDY    48  45  87 SE8       29.95R
EAU CLAIRE     NOT AVBL
MENOMONIE      HVY RAIN  47  47  97 SE7       29.91S
NEW RICHMOND   LGT RAIN  47  47  99 SE6       29.87F
OSCEOLA        RAIN      48  48 100 SE9       29.89F
$$

WIZ003>005-009-010-017-018-011600-
NORTH CENTRAL WISCONSIN

CITY           SKY/WX    TMP DP  RH WIND       PRES   REMARKS
MANITOWISH WTR CLOUDY    47  44  89 S10G18    29.96S
ARBOR VITAE    CLOUDY    49  46  87 SE12G18   29.96F
WOODRUFF       CLOUDY    49  46  87 SE12G18   29.96F
RHINELANDER    CLOUDY    46  44  93 S10       30.00S
EAGLE RIVER    CLOUDY    46  45  95 S8        29.99R
LAND O LAKES   CLOUDY    47  44  89 S10       29.99R
PHILLIPS       CLOUDY    48  44  87 SE14      29.94F
TOMAHAWK       CLOUDY    47  45  92 SE5       29.99S
MEDFORD        CLOUDY    48  45  89 SE8G17    29.97R
MERRILL        CLOUDY    48  46  93 S7        30.00R
$$

WIZ029-030-035-036-043>047-011600-
CENTRAL WISCONSIN

CITY           SKY/WX    TMP DP  RH WIND       PRES   REMARKS
WAUSAU         CLOUDY    51  47  86 SE9       29.97F
MOSINEE        CLOUDY    50  50 100 SE9       29.99S
MARSHFIELD     CLOUDY    52  47  83 SE13      29.96F
STEVENS POINT  CLOUDY    51  47  87 SE9       29.99F
WAUPACA        CLOUDY    55  53  90 SE7       30.01S
WAUTOMA        NOT AVBL
WISC RAPIDS    CLOUDY    54  47  77 SE13G18   29.98F
CAMP DOUGLAS   NOT AVBL
$$

WIZ011>013-019>022-031-037>040-048>050-011600-
NORTHEAST WISCONSIN

CITY           SKY/WX    TMP DP  RH WIND       PRES   REMARKS
ANTIGO         CLOUDY    47  46  97 SE8       30.01S
SHAWANO        CLOUDY    53  51  93 E5        30.03S FOG
OCONTO         CLOUDY    52  52 100 SE6       30.03S
STURGEON BAY   NOT AVBL
GREEN BAY      CLOUDY    54  52  93 SE8       30.03R
MANITOWOC      NOT AVBL
APPLETON       CLOUDY    55  52  88 SE8       30.02R
CLINTONVILLE   CLOUDY    52  50  93 E5        30.02R FOG
OSHKOSH        PTSUNNY   57  51  80 S10       30.01S
$$

WIZ032>034-041-042-053>061-011600-
SOUTHWEST WISCONSIN

CITY           SKY/WX    TMP DP  RH WIND       PRES   REMARKS
LA CROSSE      CLOUDY    56  48  74 SE13      29.91F
SPARTA         NOT AVBL
VIROQUA        CLOUDY    52  49  92 SE10      29.93S
BOSCOBEL       CLOUDY    57  48  72 VRB6      29.94F
PRAIRIE DU CHI CLOUDY    54  46  76 E8        29.92F
PLATTEVILLE    CLOUDY    55  48  79 SE9       29.95F
$$

WIZ056-057-062-063-064-067-068-011600-
SOUTH CENTRAL WISCONSIN

CITY           SKY/WX    TMP DP  RH WIND       PRES   REMARKS
REEDSBURG      CLOUDY    53  48  83 SE6       29.97S
BARABOO/DELLS  CLOUDY    54  47  76 SE9       29.98S
LONE ROCK      NOT AVBL
MINERAL POINT  MOSUNNY   55  46  71 SE15      29.95F
MADISON        MOSUNNY   58  47  66 SE16      29.99S
MIDDLETON      MOSUNNY   58  47  66 SE13      29.99S
WATERTOWN      PTSUNNY   57  49  74 SE12      30.01S
MONROE         SUNNY     55  48  76 SE12G18   29.97F
JANESVILLE     SUNNY     59  46  63 S14       29.99S
$$

WIZ051-052-058>065-066-070>072-011600-
SOUTHEAST WISCONSIN

CITY           SKY/WX    TMP DP  RH WIND       PRES   REMARKS
MILWAUKEE      PTSUNNY   59  50  72 S12       30.03R
WAUKESHA       PTSUNNY   55  48  76 SE7       30.03S
MILWAUKEE/TIMM CLOUDY    57  48  72 SE6       30.03R
RACINE         CLOUDY    59  48  67 S12       30.05R
BURLINGTON     MOSUNNY   58  47  66 S9        30.01F
KENOSHA        PTSUNNY   58  49  72 S12       30.03R
FOND DU LAC    PTSUNNY   57  50  77 S13       30.01S
SHEBOYGAN      CLOUDY    57  50  77 S8        30.03R
WEST BEND      CLOUDY    55  48  76 SE6       30.03R
JUNEAU         PTSUNNY   54  47  77 S13       30.02S
$$

LSZ147-162-011600-
LAKE SUPERIOR

STATION/POSITION TIME  TEMP    WIND        PRES    WAVE
                       AIR SEA DIR/SP/G            HT/PER
                 (UTC) (F)     (DEG/KT/KT) (MB)    (FT/S)
W MID LAKE BUOY  1350   49 50  150/ 14/ 16 1013.6F   1/ 3
DEVILS ISLAND    1400   50     150/  5/  9 1013.4R
SAXON HARBOR     1400   52     200/  3/  9 1012.9R
$$

LMZ867-665-643>646-011600-
LAKE MICHIGAN

STATION/POSITION TIME  TEMP    WIND        PRES    WAVE
                       AIR SEA DIR/SP/G            HT/PER
                 (UTC) (F)     (DEG/KT/KT) (MB)    (FT/S)
CHAMBERS ISLAND  1400   54     130/  3/  8 1017.3S
N MID LAKE BUOY  1350   55 58  180/  8/ 10 1018.0R   1/ 3
NORTHPORT PIER   1400   55     180/  3/  8 1017.3S
SISTER BAY       1442          200/  8/  9   N/A
KEWAUNEE LAKESHO 1400   54     140/  9/ 13 1016.2R
SHEBOYGAN LAKESH 1400   56 54  140/ 13/ 14 1017.0R
PORT WASHINGTON  1440   58     180/  4/  5 1017.3R
ATWATER BUOY     1400   58     170/ 12/ 14 1017.6R
MILWAUKEE LAKESH 1400   58     170/ 10/ 11   N/A
S MID LAKE BUOY  1350   56 61  150/ 10/ 14 1017.2R   2/ 3
KENOSHA   LAKESH 1400   58     170/ 14/ 16 1016.6R
$$

TC  - TEMPERATURE IN CELSIUS
VSB - VISIBILITY IN STATUTE MILES
WCI - WIND CHILL INDEX
HX  - HEAT INDEX



USA.gov is the U.S. government's official web portal to all federal, state and local government web resources and services.